TimePST,TemperatureF,Dew PointF,Humidity,Sea Level PressureIn,VisibilityMPH,Wind Direction,Wind SpeedMPH,Gust SpeedMPH,PrecipitationIn,Events,Conditions,WindDirDegrees,DateUTC
12:03 AM,51.8,48.2,88,30.04,2.5,Calm,Calm,-,N/A,,Clear,0,2012-11-07 08:03:00
12:41 AM,51.8,50.0,94,30.03,2.5,Calm,Calm,-,N/A,,Clear,0,2012-11-07 08:41:00
12:53 AM,50.0,48.9,96,30.04,2.5,Calm,Calm,-,N/A,,Clear,0,2012-11-07 08:53:00
1:26 AM,50.0,48.2,94,30.03,3.0,Calm,Calm,-,N/A,,Clear,0,2012-11-07 09:26:00
1:53 AM,51.1,46.9,86,30.03,2.5,Calm,Calm,-,N/A,,Clear,0,2012-11-07 09:53:00
2:00 AM,51.8,46.4,82,30.03,3.0,Calm,Calm,-,N/A,,Haze,0,2012-11-07 10:00:00
2:40 AM,50.0,46.4,87,30.02,1.8,Calm,Calm,-,N/A,,Clear,0,2012-11-07 10:40:00
2:53 AM,50.0,48.0,93,30.02,2.0,Calm,Calm,-,N/A,,Clear,0,2012-11-07 10:53:00
3:50 AM,48.2,44.6,87,30.01,1.5,Calm,Calm,-,N/A,,Clear,0,2012-11-07 11:50:00
3:53 AM,48.0,46.0,93,30.01,1.5,Calm,Calm,-,N/A,,Clear,0,2012-11-07 11:53:00
4:17 AM,46.4,42.8,87,30.01,0.8,Calm,Calm,-,N/A,,Mist,0,2012-11-07 12:17:00
4:22 AM,46.4,42.8,87,30.01,0.2,Calm,Calm,-,N/A,,Haze,0,2012-11-07 12:22:00
4:29 AM,46.4,44.6,93,30.02,0.5,Calm,Calm,-,N/A,Fog,Fog,0,2012-11-07 12:29:00
4:40 AM,48.2,44.6,87,30.02,1.0,Calm,Calm,-,N/A,,Mist,0,2012-11-07 12:40:00
4:53 AM,45.0,45.0,100,30.02,1.5,Calm,Calm,-,N/A,,Partly Cloudy,0,2012-11-07 12:53:00
5:08 AM,44.6,42.8,93,30.02,0.5,Calm,Calm,-,N/A,Fog,Fog,0,2012-11-07 13:08:00
5:10 AM,44.6,42.8,93,30.02,0.2,Calm,Calm,-,N/A,Fog,Fog,0,2012-11-07 13:10:00
5:24 AM,46.4,44.6,93,30.02,1.0,Calm,Calm,-,N/A,,Mist,0,2012-11-07 13:24:00
5:44 AM,46.4,44.6,93,30.02,2.0,Calm,Calm,-,N/A,,Clear,0,2012-11-07 13:44:00
5:53 AM,46.9,44.1,90,30.03,3.0,Calm,Calm,-,N/A,,Clear,0,2012-11-07 13:53:00
6:03 AM,44.6,42.8,93,30.03,2.5,Calm,Calm,-,N/A,,Partly Cloudy,0,2012-11-07 14:03:00
6:07 AM,44.6,42.8,93,30.02,0.8,Calm,Calm,-,N/A,,Mist,0,2012-11-07 14:07:00
6:15 AM,44.6,44.6,100,30.02,0.2,East,3.5,-,N/A,Fog,Fog,90,2012-11-07 14:15:00
6:23 AM,46.4,44.6,93,30.02,1.0,East,3.5,-,N/A,,Mist,80,2012-11-07 14:23:00
6:31 AM,46.4,46.4,100,30.03,1.5,East,3.5,-,N/A,,Scattered Clouds,80,2012-11-07 14:31:00
6:53 AM,46.9,45.0,93,30.04,1.0,Calm,Calm,-,N/A,,Clear,0,2012-11-07 14:53:00
7:50 AM,53.6,50.0,88,30.05,2.5,Calm,Calm,-,N/A,,Clear,0,2012-11-07 15:50:00
7:53 AM,54.0,50.0,86,30.05,2.5,Calm,Calm,-,N/A,,Clear,0,2012-11-07 15:53:00
8:08 AM,55.4,50.0,82,30.05,3.0,Calm,Calm,-,N/A,,Haze,0,2012-11-07 16:08:00
8:53 AM,62.1,50.0,65,30.05,4.0,Calm,Calm,-,N/A,,Haze,0,2012-11-07 16:53:00
9:53 AM,68.0,51.1,55,30.04,4.0,Calm,Calm,-,N/A,,Haze,0,2012-11-07 17:53:00
10:53 AM,73.0,52.0,48,30.02,4.0,NW,3.5,-,N/A,,Haze,310,2012-11-07 18:53:00
11:53 AM,77.0,53.1,43,29.99,4.0,NW,4.6,-,N/A,,Haze,310,2012-11-07 19:53:00
12:53 PM,79.0,53.1,40,29.96,4.0,NNW,4.6,-,N/A,,Haze,330,2012-11-07 20:53:00
1:53 PM,80.1,50.0,35,29.94,6.0,West,3.5,-,N/A,,Haze,260,2012-11-07 21:53:00
3:53 PM,81.0,52.0,36,29.91,6.0,Calm,Calm,-,N/A,,Haze,0,2012-11-07 23:53:00
4:53 PM,73.9,52.0,46,29.91,5.0,North,3.5,-,N/A,,Haze,10,2012-11-08 00:53:00
5:53 PM,63.0,53.1,70,29.91,6.0,Calm,Calm,-,N/A,,Haze,0,2012-11-08 01:53:00
6:53 PM,62.1,52.0,70,29.92,6.0,WNW,3.5,-,N/A,,Haze,300,2012-11-08 02:53:00
7:53 PM,60.1,51.1,72,29.91,5.0,Calm,Calm,-,N/A,,Haze,0,2012-11-08 03:53:00
8:53 PM,55.9,52.0,87,29.91,4.0,NW,3.5,-,N/A,,Clear,320,2012-11-08 04:53:00
9:53 PM,53.1,48.9,86,29.90,5.0,Calm,Calm,-,N/A,,Clear,0,2012-11-08 05:53:00
10:53 PM,52.0,48.0,86,29.91,4.0,SSE,3.5,-,N/A,,Clear,150,2012-11-08 06:53:00
11:53 PM,52.0,48.9,89,29.90,4.0,Calm,Calm,-,N/A,,Clear,0,2012-11-08 07:53:00